Terminal Aerodrome Forecast
Issued by NWS

Home | Current Version | Previous Version | Text Only | Print | Product List | Glossary On
Versions: 1 2 3 4 5 6 7 8 9 10 11 12 13 14 15 16 17 18 19 20 21 22 23 24
000
FTUS43 KDVN 290200 AAA
TAFCID
TAF AMD
KCID 290203Z 2902/2924 13007KT P6SM BKN150
      TEMPO 2902/2906 4SM BR
     FM291400 19012KT P6SM SCT150=

USA.gov is the U.S. government's official web portal to all federal, state and local government web resources and services.